Jonesville, VA

8:52 PM EST on February 24, 2017 (GMT -0500)
Jonesville

Weather History for K0VG - October, 2011

Change the Weather History Date:

Friday, October 14, 2011

  Actual Average (KLNP) Record (KLNP)
Temperature  
Mean Temperature 58 °F -  
Max Temperature 68 °F 62 °F 80 °F (2008)
Min Temperature 44 °F 43 °F 30 °F (2006)
Degree Days  
Heating Degree Days 7    
Growing Degree Days 8 (Base 50)    
Moisture  
Dew Point 44 °F    
Average Humidity 63    
Maximum Humidity 100    
Minimum Humidity 30    
Precipitation  
Precipitation 0.00 in - - ()
Sea Level Pressure  
Sea Level Pressure 29.81 in    
Wind  
Wind Speed 8 mph (WSW)    
Max Wind Speed 21 mph    
Max Gust Speed 30 mph    
Visibility 11 miles    
Events Rain    
Averages and records for this station are not official NWS values.
T = Trace of Precipitation, MM = Missing Value Source: NWS Daily Summary

Daily Weather History Graph

Daily Weather History Graph

Search for Another Location

Airport or City:

Trip Planner

Search our weather history database for the weather conditions in past years. The results will help you decide how hot, cold, wet, or windy it might be!

Date:

Astronomy

Oct. 14, 2011 Rise Set
Actual Time 7:39 AM EDT 6:58 PM EDT
Civil Twilight 7:13 AM EDT 7:24 PM EDT
Nautical Twilight 6:43 AM EDT 7:54 PM EDT
Astronomical Twilight 6:13 AM EDT 8:24 PM EDT
Moon 8:16 PM EDT (10/14) 10:01 AM EDT (10/14)
Length of Visible Light 12h 11m
Length of Day
11h 19m
Waning Gibbous, 94% of the Moon is Illuminated
Oct 14
Waning Gibbous
Oct 19
Last Quarter
Oct 26
New
Nov 2
First Quarter
Nov 10
Full

Hourly Weather History & Observations

Time (EDT) Temp. Dew Point Humidity Pressure Visibility Wind Dir Wind Speed Gust Speed Precip Events Conditions
12:35 AM - - N/A% - - North - - N/A   Unknown
1:55 AM 57.2 °F 57.2 °F 100% 29.67 in 4.0 mi SW 9.2 mph - N/A Rain Light Rain
2:15 AM 57.2 °F 55.4 °F 94% 29.68 in 10.0 mi NW 4.6 mph - N/A   Mostly Cloudy
2:35 AM 57.2 °F 53.6 °F 88% - - WSW 4.6 mph - N/A   Overcast
3:15 AM 57.2 °F 55.4 °F 94% 29.69 in 8.0 mi North - - N/A Rain Light Rain
4:15 AM - - N/A% 29.70 in 18.0 mi SW 5.8 mph - N/A   Unknown
4:55 AM - - N/A% - - North - - N/A   Unknown
5:15 AM 57.2 °F 53.6 °F 88% 29.72 in 10.0 mi West 4.6 mph - N/A   Overcast
5:55 AM 57.2 °F 51.8 °F 82% 29.74 in 10.0 mi WSW 6.9 mph - N/A   Overcast
6:15 AM - - N/A% - - North - - N/A   Unknown
6:55 AM - - N/A% - 10.0 mi WSW 8.1 mph - N/A   Scattered Clouds
7:35 AM 53.6 °F 50.0 °F 88% 29.77 in - SW 8.1 mph - N/A   Clear
7:55 AM - - N/A% - 10.0 mi SW 6.9 mph - N/A   Clear
8:35 AM - - N/A% - - North - - N/A   Unknown
9:15 AM 55.4 °F 51.8 °F 88% 29.80 in 10.0 mi North - - N/A   Clear
9:35 AM 55.4 °F 51.8 °F 88% - 10.0 mi SW 10.4 mph - N/A   Clear
10:55 AM 59.0 °F 48.2 °F 67% - - West 9.2 mph - N/A   Partly Cloudy
11:15 AM - - N/A% - - North - - N/A   Unknown
11:35 AM 62.6 °F 48.2 °F 59% - 10.0 mi West 10.4 mph 16.1 mph N/A   Clear
11:55 AM 64.4 °F 46.4 °F 52% 29.83 in 10.0 mi West 10.4 mph - N/A   Partly Cloudy
12:15 PM 64.4 °F 46.4 °F 52% 29.83 in 10.0 mi West 11.5 mph 17.3 mph N/A   Partly Cloudy
12:55 PM 66.2 °F 42.8 °F 43% 29.82 in 10.0 mi North - - N/A   Partly Cloudy
1:15 PM 66.2 °F 41.0 °F 40% 29.81 in 10.0 mi North - - N/A   Scattered Clouds
1:35 PM - - N/A% 29.81 in - WNW 20.7 mph 26.5 mph N/A   Unknown
1:55 PM 66.2 °F 41.0 °F 40% 29.80 in 10.0 mi West 12.7 mph 20.7 mph N/A   Unknown
2:35 PM 66.2 °F 41.0 °F 40% 29.79 in 10.0 mi West 13.8 mph 21.9 mph N/A   Scattered Clouds
3:15 PM 68.0 °F 39.2 °F 35% 29.78 in 10.0 mi North - - N/A   Partly Cloudy
3:35 PM 66.2 °F 39.2 °F 37% 29.79 in 10.0 mi North - - N/A   Partly Cloudy
5:15 PM - - N/A% - - North - - N/A   Unknown
5:35 PM 66.2 °F 35.6 °F 32% 29.80 in 10.0 mi West 18.4 mph 29.9 mph N/A   Clear
5:55 PM 66.2 °F 33.8 °F 30% 29.81 in 10.0 mi West 12.7 mph 26.5 mph N/A   Clear
6:55 PM 62.6 °F 35.6 °F 37% 29.83 in - WSW 8.1 mph - N/A   Clear
7:15 PM 62.6 °F 35.6 °F 37% 29.84 in 10.0 mi West 5.8 mph - N/A   Clear
7:55 PM 59.0 °F 35.6 °F 42% 29.86 in 10.0 mi West 5.8 mph - N/A   Clear
8:35 PM - - N/A% - - North - - N/A   Unknown
8:55 PM 59.0 °F 35.6 °F 42% 29.87 in 10.0 mi West 4.6 mph - N/A   Unknown
9:35 PM - - N/A% 29.89 in 18.0 mi North - - N/A   Unknown
9:55 PM 51.8 °F 42.8 °F 71% 29.90 in 18.0 mi North - - N/A   Clear
10:15 PM 50.0 °F 42.8 °F 76% 29.90 in 18.0 mi North - - N/A   Clear
10:35 PM 48.2 °F 42.8 °F 82% 29.89 in - Calm Calm - N/A   Clear
10:55 PM 48.2 °F 42.8 °F 82% 29.90 in - Calm Calm - N/A   Clear
11:15 PM - - N/A% 29.90 in 10.0 mi North - - N/A   Unknown
11:35 PM 44.6 °F 41.0 °F 87% 29.91 in 18.0 mi North - - N/A   Clear
11:55 PM - 41.0 °F N/A% 29.91 in - Calm Calm - N/A   Clear